Temp
65 65 65 65 65 65 65 65 65 64 65 65 65 65 65 65 65 67 63 66 66 69 68 70 71 69 70 65 66 63 51 47 52 55 58 64 62 64 66 65 65 67 65 67 70
65 65 65 65 65 65 65 64 64 64 64 64 65 64 64 64 62 61 67 69 69 68 68 65 63 66 60 62 62 55 47 53 57 56 59 63 63 64 62 61 60 62 66 69 69
65 64 65 64 64 64 64 64 64 64 64 64 64 64 64 63 58 59 68 69 69 68 67 67 66 63 57 59 57 55 50 57 58 62 63 64 62 63 61 56 62 63 65 66 66
64 64 64 64 64 64 64 63 63 63 64 63 64 64 63 61 47 62 68 69 69 67 66 64 62 56 54 53 60 51 59 59 60 61 62 60 63 60 60 61 66 66 67 66 64
63 63 63 64 63 64 64 63 63 63 63 63 63 63 61 54 55 67 67 70 69 67 63 61 58 56 51 55 57 52 56 60 60 60 59 61 57 56 57 61 64 68 68 65 62
63 62 62 63 63 64 64 63 63 63 63 63 63 63 56 48 67 69 68 68 67 65 62 62 60 61 56 54 54 55 57 57 58 57 58 56 54 57 59 63 63 62 62 60 63
62 62 62 62 63 63 63 63 63 63 63 63 63 62 53 53 66 67 68 66 67 65 61 64 63 58 57 53 58 56 50 54 53 55 54 57 51 51 59 62 61 61 59 62 65
62 61 61 62 62 63 63 63 62 63 62 63 63 57 48 62 62 65 66 65 68 68 65 65 65 59 57 57 55 49 47 39 52 55 55 54 42 54 59 59 58 59 57 60 63
60 61 61 61 61 62 62 62 62 63 63 63 56 51 47 62 58 63 63 62 64 65 65 69 62 55 55 48 43 43 35 39 46 54 53 49 42 54 58 57 55 54 57 59 60
59 60 60 61 61 61 62 62 61 61 60 62 59 47 54 51 58 61 62 63 60 59 57 56 52 47 46 42 34 38 37 42 41 49 49 46 45 52 55 57 56 55 57 57 60
57 58 60 60 61 62 60 56 49 45 51 49 50 50 53 57 60 57 61 59 58 55 45 50 43 38 43 46 49 47 42 40 43 49 46 44 45 49 53 53 52 53 54 57 60
55 57 60 61 61 62 60 50 50 53 43 52 53 54 57 58 50 55 60 51 49 43 48 44 38 47 51 50 47 45 42 41 46 49 47 44 44 50 53 55 56 56 57 59 56
54 56 58 61 61 58 55 54 60 59 42 46 51 51 52 55 49 49 54 52 46 44 45 40 45 52 50 46 45 43 41 40 40 46 46 41 38 44 52 55 58 58 58 57 55
55 56 57 59 54 55 51 59 59 57 35 40 44 49 52 53 46 56 57 53 48 43 45 44 50 48 45 45 46 39 47 46 44 39 32 42 28 40 48 51 54 56 52 51 50
55 54 57 58 53 50 55 56 56 52 22 41 44 58 52 48 48 48 57 51 44 45 45 41 45 44 43 45 48 44 48 46 44 39 35 35 30 37 46 47 50 50 50 48 48
55 53 56 54 53 56 56 56 51 32 22 35 44 44 44 48 46 48 49 52 52 45 45 43 48 48 46 49 49 50 45 45 43 37 23 35 33 34 41 48 49 48 48 47 45
54 54 54 57 50 56 56 49 31 26 35 33 37 43 43 42 42 44 42 42 39 35 35 41 42 44 48 44 47 46 39 28 26 26 25 38 34 39 48 50 49 48 45 44 44
54 54 55 56 55 55 51 37 27 28 29 37 40 41 38 43 41 42 40 38 43 41 36 33 30 41 46 44 40 40 39 27 20 23 26 34 30 40 49 48 51 51 47 45 43
53 52 52 51 55 55 43 30 31 29 35 36 39 35 35 41 41 40 39 39 43 44 36 33 34 42 44 47 46 39 37 42 31 24 25 28 36 46 49 45 45 44 44 42 42
47 50 49 53 55 50 37 33 33 40 42 41 28 35 31 35 35 39 37 43 42 47 47 41 30 40 42 46 46 42 45 31 28 16 17 26 28 34 41 45 43 42 42 42 42
47 43 48 54 53 42 32 32 33 43 46 38 33 32 33 35 36 36 37 42 47 46 48 44 38 35 42 38 39 39 37 39 37 29 23 21 28 43 42 44 45 44 45 42 41
40 32 47 52 37 33 32 33 41 43 43 41 40 38 35 38 34 36 36 42 50 49 40 45 40 30 35 42 46 44 38 38 26 26 27 27 27 47 46 46 47 46 46 43 43
33 36 45 50 31 32 34 36 41 39 39 39 38 41 42 38 32 37 40 46 49 47 43 44 34 25 28 34 40 37 41 41 39 34 29 25 28 46 45 45 46 44 42 43 43
35 31 34 39 37 35 33 33 33 42 41 43 40 42 40 38 39 35 37 42 44 46 45 45 35 32 29 31 36 33 37 39 38 25 32 32 33 42 45 42 45 45 45 44 44
33 30 32 29 31 36 36 33 34 32 41 43 38 39 37 28 33 34 37 39 42 43 44 42 30 36 38 37 36 35 36 37 34 35 31 32 34 40 44 45 47 47 47 45 44
32 32 34 32 36 35 37 34 35 32 36 34 35 39 40 35 36 34 37 38 38 39 41 42 31 36 28 37 36 32 35 35 35 36 35 36 35 45 47 45 45 48 48 48 44
38 40 37 33 33 33 32 34 36 38 38 41 40 39 38 40 43 42 43 43 43 38 37 38 31 23 17 30 29 19 28 34 36 37 37 32 40 45 43 44 44 44 45 44 46
MSLP
1015.24 1015.77 1016.22 1016.62 1016.99 1017.35 1017.67 1017.89 1018.06 1018.32 1018.49 1018.62 1018.58 1018.56 1018.44 1018.27 1017.94 1017.61 1017.74 1017.77 1017.71 1017.26 1016.85 1016.46 1015.76 1015.62 1015.11 1015.12 1014.77 1014.90 1015.82 1016.00 1015.35 1015.38 1014.88 1014.35 1014.44 1014.57 1014.69 1015.15 1015.39 1015.76 1016.29 1016.82 1017.03
1014.75 1015.24 1015.77 1016.25 1016.68 1017.08 1017.40 1017.81 1017.98 1018.25 1018.45 1018.57 1018.54 1018.44 1018.27 1018.22 1018.14 1017.87 1017.91 1017.57 1017.45 1017.33 1017.08 1016.97 1016.66 1016.21 1015.94 1015.57 1015.30 1015.57 1016.20 1015.69 1015.33 1014.89 1014.69 1014.61 1014.54 1014.81 1015.21 1015.58 1015.97 1016.36 1016.62 1016.74 1016.91
1014.44 1014.82 1015.33 1015.78 1016.29 1016.77 1017.14 1017.54 1017.79 1018.10 1018.36 1018.54 1018.46 1018.35 1018.27 1018.15 1018.34 1017.74 1017.60 1017.45 1017.26 1017.24 1017.27 1017.14 1016.95 1016.71 1016.47 1015.99 1015.70 1015.74 1015.99 1015.63 1015.63 1015.00 1014.87 1014.88 1015.18 1015.19 1015.51 1016.03 1015.88 1016.33 1016.61 1016.90 1017.10
1014.07 1014.45 1014.94 1015.36 1015.92 1016.51 1016.87 1017.36 1017.60 1017.90 1018.26 1018.50 1018.57 1018.44 1018.22 1018.18 1018.40 1017.63 1017.38 1017.20 1017.04 1017.01 1017.18 1016.97 1016.96 1016.99 1016.74 1016.51 1016.05 1016.17 1015.91 1015.91 1015.95 1015.73 1015.45 1015.57 1015.42 1015.58 1015.71 1015.99 1015.81 1016.05 1016.35 1016.59 1016.78
1013.79 1014.09 1014.58 1015.04 1015.46 1016.13 1016.65 1017.20 1017.48 1017.66 1018.04 1018.43 1018.50 1018.53 1018.45 1018.20 1017.85 1017.49 1017.26 1016.92 1016.84 1016.92 1016.98 1016.96 1017.00 1016.99 1016.88 1016.55 1016.39 1016.53 1016.40 1016.38 1016.33 1016.26 1016.45 1016.23 1016.28 1016.26 1016.05 1015.80 1015.98 1015.89 1016.20 1016.53 1016.63
1013.27 1013.71 1014.17 1014.70 1015.19 1015.72 1016.32 1016.96 1017.41 1017.47 1017.80 1018.33 1018.55 1018.56 1018.63 1018.08 1017.36 1017.34 1017.22 1017.02 1016.93 1016.95 1016.86 1016.91 1016.82 1016.89 1016.93 1016.72 1016.68 1016.85 1016.85 1016.89 1016.67 1016.72 1016.86 1017.04 1017.01 1016.92 1016.28 1015.82 1015.90 1016.35 1016.52 1016.67 1016.74
1012.68 1013.25 1013.71 1014.37 1014.88 1015.42 1015.99 1016.60 1017.20 1017.51 1017.78 1018.21 1018.57 1018.61 1018.55 1017.91 1017.34 1017.30 1017.27 1017.19 1017.08 1017.00 1016.87 1016.73 1016.74 1016.87 1017.02 1016.99 1016.96 1017.19 1017.66 1017.52 1017.38 1017.22 1017.41 1017.54 1017.77 1017.06 1016.79 1016.49 1016.49 1016.53 1016.68 1016.83 1016.84
1012.06 1012.72 1013.18 1013.87 1014.57 1015.10 1015.77 1016.44 1016.96 1017.36 1017.77 1018.17 1018.44 1018.70 1018.32 1017.62 1017.48 1017.46 1017.26 1017.12 1017.12 1016.81 1016.93 1016.73 1016.76 1017.06 1017.34 1017.37 1017.63 1018.08 1018.39 1018.70 1017.77 1017.59 1017.94 1018.09 1017.94 1017.11 1016.73 1016.73 1016.89 1016.92 1017.10 1016.98 1016.97
1011.66 1012.14 1012.67 1013.37 1014.02 1014.82 1015.51 1016.20 1016.81 1017.28 1017.76 1018.23 1018.75 1018.90 1018.28 1017.56 1017.61 1017.56 1017.27 1017.42 1017.39 1017.02 1017.05 1017.00 1017.26 1017.68 1017.89 1018.29 1018.90 1019.00 1019.14 1019.10 1018.37 1017.81 1018.13 1018.48 1018.45 1017.58 1016.81 1016.89 1017.24 1017.28 1017.32 1017.19 1017.04
1011.02 1011.59 1012.22 1012.98 1013.69 1014.54 1015.33 1016.19 1016.81 1017.50 1018.06 1018.45 1018.74 1019.22 1018.31 1017.43 1017.47 1017.46 1017.48 1017.61 1017.49 1017.73 1017.59 1017.64 1017.98 1018.46 1018.69 1018.89 1019.15 1019.16 1019.35 1018.94 1018.63 1018.32 1018.38 1018.70 1018.53 1018.07 1017.58 1017.47 1017.39 1017.28 1017.26 1017.33 1017.29
1010.35 1011.27 1011.77 1012.44 1013.25 1013.91 1015.24 1016.51 1017.28 1018.05 1017.97 1017.72 1018.12 1017.97 1017.57 1017.34 1017.50 1017.64 1017.58 1017.80 1017.90 1018.44 1018.16 1018.33 1018.79 1018.88 1018.86 1018.86 1018.52 1018.82 1018.97 1018.93 1018.60 1018.43 1018.66 1018.84 1018.62 1018.38 1017.66 1017.62 1017.47 1017.36 1017.20 1017.32 1017.51
1010.34 1010.63 1011.22 1011.93 1012.66 1013.26 1014.56 1014.92 1014.83 1015.19 1017.10 1017.43 1017.67 1017.73 1017.68 1017.43 1017.53 1017.99 1017.98 1018.40 1018.45 1018.48 1018.63 1019.07 1018.99 1018.98 1018.96 1018.95 1018.86 1018.85 1018.94 1018.90 1018.77 1018.74 1018.99 1019.05 1018.38 1017.89 1017.12 1016.48 1016.27 1016.53 1016.79 1017.12 1017.99
1009.97 1010.24 1010.97 1011.43 1012.22 1013.28 1013.81 1014.02 1014.41 1014.60 1016.28 1017.42 1017.51 1017.45 1017.64 1017.60 1017.14 1017.75 1018.11 1018.38 1018.59 1018.62 1018.96 1018.80 1018.51 1018.43 1018.81 1018.84 1018.93 1018.96 1019.03 1019.09 1019.41 1019.36 1019.33 1019.53 1018.62 1017.18 1015.74 1015.38 1015.65 1015.94 1016.31 1016.80 1017.97
1009.44 1009.93 1010.43 1011.12 1012.43 1012.66 1013.66 1014.25 1014.13 1014.81 1016.40 1017.17 1017.04 1016.46 1017.09 1017.23 1017.11 1017.12 1017.62 1018.04 1018.66 1018.68 1018.89 1018.94 1018.18 1018.40 1018.65 1018.79 1018.90 1019.20 1019.08 1019.31 1019.74 1020.33 1020.60 1020.18 1019.62 1017.39 1016.05 1015.57 1015.37 1015.87 1016.97 1017.99 1018.80
1008.57 1009.39 1009.82 1010.74 1010.39 1011.72 1012.89 1014.08 1014.34 1015.36 1016.57 1015.58 1015.67 1015.25 1016.08 1016.97 1016.93 1017.36 1017.42 1017.86 1018.18 1018.16 1018.53 1018.46 1018.18 1018.23 1018.56 1018.76 1019.00 1019.35 1019.17 1019.57 1020.22 1020.95 1021.33 1020.77 1020.71 1017.37 1016.18 1015.78 1015.89 1016.57 1017.73 1018.72 1019.45
1007.78 1008.40 1009.12 1009.93 1010.41 1011.11 1012.35 1013.55 1014.52 1017.17 1015.74 1015.48 1015.03 1015.16 1016.33 1016.68 1016.98 1017.47 1017.68 1017.90 1017.83 1018.20 1018.44 1018.76 1018.61 1018.19 1018.27 1018.76 1019.04 1019.39 1019.87 1020.35 1020.93 1021.76 1022.07 1020.53 1019.98 1018.07 1016.46 1015.46 1015.97 1017.32 1018.21 1019.05 1020.08
1007.19 1007.27 1008.53 1008.93 1009.20 1010.19 1011.67 1013.56 1015.45 1015.00 1015.32 1015.36 1014.98 1015.32 1016.01 1016.24 1017.10 1017.23 1017.63 1017.64 1017.60 1018.39 1018.61 1019.04 1018.97 1018.75 1018.39 1018.98 1019.26 1019.71 1020.62 1021.70 1022.42 1022.83 1021.48 1020.14 1020.13 1017.74 1016.16 1015.57 1015.84 1017.15 1018.53 1019.48 1020.40
1006.19 1006.59 1006.90 1007.63 1008.85 1009.38 1011.29 1013.17 1013.74 1013.82 1014.73 1014.88 1014.76 1015.54 1015.79 1016.23 1016.81 1017.14 1017.42 1017.56 1017.49 1017.64 1018.00 1018.59 1019.29 1018.88 1018.61 1018.63 1019.05 1019.76 1020.53 1021.23 1021.73 1022.48 1021.76 1020.53 1019.09 1016.65 1015.80 1015.67 1015.70 1016.85 1018.24 1019.60 1020.43
1005.59 1005.47 1005.72 1006.37 1007.74 1008.78 1010.65 1011.56 1011.62 1012.51 1013.16 1013.83 1015.18 1015.86 1015.93 1016.07 1016.31 1016.90 1016.77 1017.08 1016.71 1017.02 1017.29 1017.91 1018.49 1018.57 1018.59 1018.43 1018.91 1019.87 1020.24 1020.76 1021.60 1022.60 1022.25 1020.20 1018.56 1016.76 1016.00 1016.74 1016.82 1017.67 1018.96 1019.98 1020.71
1004.83 1004.02 1004.39 1005.81 1006.62 1008.24 1010.04 1011.07 1011.59 1011.29 1011.81 1012.55 1013.90 1015.00 1015.41 1015.75 1016.18 1016.14 1016.36 1016.40 1016.39 1016.33 1016.53 1017.15 1018.53 1018.94 1018.92 1018.76 1018.97 1019.35 1020.05 1020.92 1021.81 1022.57 1022.07 1020.29 1018.82 1017.44 1016.86 1016.70 1017.49 1018.48 1019.35 1020.17 1020.90
1004.41 1003.05 1003.95 1005.40 1006.31 1007.97 1009.16 1010.50 1010.94 1010.66 1010.47 1011.61 1012.80 1013.91 1014.53 1015.11 1015.88 1015.86 1015.56 1015.74 1015.59 1015.84 1016.59 1017.09 1017.79 1019.41 1019.05 1018.78 1018.66 1019.43 1019.74 1020.34 1020.80 1021.40 1021.25 1020.60 1018.87 1017.42 1017.07 1016.85 1017.54 1018.34 1019.09 1019.75 1020.63
1003.88 1004.51 1004.61 1004.94 1006.25 1007.58 1008.90 1009.70 1009.80 1010.03 1010.61 1011.09 1011.82 1012.42 1013.15 1014.47 1015.43 1015.47 1015.22 1015.00 1015.00 1015.14 1016.40 1017.10 1017.64 1019.04 1019.05 1019.12 1018.79 1019.00 1019.46 1019.94 1020.57 1021.13 1020.97 1020.24 1018.60 1016.99 1016.83 1016.87 1017.11 1017.92 1018.49 1019.39 1019.91
1003.84 1004.47 1004.71 1004.35 1005.42 1007.44 1008.69 1009.23 1009.38 1010.36 1010.70 1011.03 1011.52 1011.75 1012.63 1013.94 1015.20 1015.15 1015.01 1014.86 1014.98 1015.32 1015.78 1016.89 1018.12 1019.19 1019.81 1020.13 1019.68 1019.24 1019.23 1019.58 1020.07 1020.43 1020.32 1020.35 1018.80 1017.33 1016.93 1017.03 1017.35 1017.91 1018.55 1019.41 1020.02
1003.32 1004.52 1005.18 1005.19 1006.30 1006.97 1007.95 1009.28 1009.79 1010.15 1010.59 1010.75 1011.26 1011.56 1012.75 1013.95 1014.08 1014.96 1015.38 1015.53 1015.45 1015.55 1016.22 1016.98 1018.33 1018.51 1018.62 1018.67 1018.69 1019.18 1019.10 1019.35 1019.93 1020.20 1020.05 1019.23 1018.91 1017.70 1017.12 1017.45 1017.57 1018.00 1018.54 1019.02 1019.18
1003.70 1005.04 1005.50 1006.04 1006.93 1007.08 1007.59 1009.26 1009.51 1010.39 1010.34 1010.84 1011.67 1011.72 1012.27 1013.76 1014.23 1014.70 1015.29 1015.85 1015.90 1016.04 1016.56 1017.77 1018.36 1018.97 1019.06 1018.93 1018.91 1019.02 1019.14 1019.25 1019.36 1019.56 1019.54 1019.37 1018.76 1018.26 1017.71 1017.60 1017.70 1017.63 1017.76 1018.05 1018.46
1004.47 1005.17 1005.74 1006.60 1007.17 1007.33 1008.12 1009.19 1009.21 1010.12 1010.33 1011.08 1011.46 1011.97 1012.35 1013.00 1013.35 1014.21 1014.67 1015.27 1015.78 1016.73 1016.88 1017.65 1018.48 1019.34 1020.06 1019.97 1019.79 1019.67 1019.40 1019.29 1019.22 1019.09 1018.97 1018.77 1018.11 1017.80 1017.24 1017.44 1017.36 1017.34 1017.43 1017.60 1017.88
1004.66 1004.83 1005.00 1007.08 1007.57 1007.95 1008.52 1009.23 1009.48 1009.63 1010.69 1010.83 1011.08 1012.11 1012.78 1013.24 1013.66 1014.13 1014.30 1015.04 1015.44 1016.44 1017.36 1018.11 1019.22 1020.80 1021.66 1021.13 1020.86 1020.57 1019.60 1019.05 1018.56 1018.14 1018.31 1017.99 1017.35 1017.21 1016.92 1016.72 1016.94 1017.13 1017.21 1017.37 1017.41
Wind_Speed
17 17 15 13 12 11 10 8 7 6 5 2 0 2 5 7 10 3 3 1 4 9 11 8 6 9 7 3 2 5 5 2 4 7 5 6 5 2 3 6 3 3 5 8 10
17 17 17 15 13 12 11 9 7 6 5 3 1 2 5 8 2 4 2 3 4 6 5 7 7 9 5 4 3 4 4 5 2 1 7 5 6 6 4 4 3 5 6 8 8
17 17 18 16 15 13 11 10 9 6 5 3 1 2 4 4 2 1 1 4 4 3 3 2 5 3 3 3 2 1 5 3 4 5 3 7 4 1 8 3 6 10 9 6 5
17 16 17 18 16 15 13 12 10 9 6 4 3 2 3 1 5 1 3 5 6 2 3 2 2 1 2 2 3 1 2 3 2 5 4 3 3 4 4 5 5 8 7 5 4
17 16 16 16 17 16 14 13 12 10 8 6 4 2 2 2 3 2 5 6 5 2 3 4 4 2 2 2 3 2 3 5 3 7 5 4 3 1 3 4 3 5 6 5 2
20 18 16 15 17 17 15 14 12 11 10 7 5 2 2 3 3 3 5 5 4 2 3 3 2 3 3 2 4 2 4 3 2 3 3 3 4 5 4 6 6 2 4 3 4
20 20 18 16 16 17 17 15 13 11 10 9 6 2 2 5 2 3 4 1 4 3 3 1 2 2 2 2 1 4 3 5 1 2 2 5 6 8 8 7 7 5 3 4 7
21 20 19 18 17 17 16 14 13 13 12 9 6 1 4 0 1 1 2 2 5 4 3 3 6 2 2 1 4 3 4 0 5 8 3 9 8 7 11 10 9 7 6 6 8
21 20 19 20 18 16 16 14 13 13 12 9 3 2 4 1 2 4 1 1 1 3 4 2 3 2 3 5 3 0 3 6 4 7 5 5 5 6 4 5 7 6 6 6 5
20 19 21 21 19 19 18 14 10 8 7 4 2 1 5 5 4 3 1 3 1 2 2 2 3 3 1 3 6 5 4 4 6 5 4 4 8 10 7 6 8 7 8 8 6
18 16 22 23 22 24 19 11 7 2 4 6 6 3 4 4 3 1 2 2 1 3 4 2 3 6 7 5 5 4 1 5 2 1 2 5 8 10 11 7 9 9 8 7 7
9 19 22 25 26 26 17 9 7 9 5 2 2 2 1 4 5 3 3 5 4 5 3 3 5 7 8 7 6 2 1 2 2 5 3 6 13 12 14 13 11 11 9 8 7
9 18 22 26 27 21 18 12 8 6 6 4 5 5 5 4 6 9 8 4 4 7 7 7 4 12 6 3 5 3 4 2 1 3 2 3 10 5 8 16 13 7 5 2 14
15 14 23 22 20 16 17 8 8 2 4 6 10 7 6 3 2 6 10 6 5 10 7 6 5 7 4 4 4 2 4 4 1 4 3 5 7 6 5 4 6 7 8 10 11
18 10 24 27 11 19 14 9 7 8 6 9 8 6 10 9 10 4 4 1 7 7 6 7 7 5 7 5 6 3 1 7 3 2 3 3 2 10 5 6 5 7 9 8 8
22 10 21 19 5 18 16 11 10 6 10 5 6 13 13 7 4 4 4 0 2 2 2 3 3 5 6 3 5 4 4 4 3 3 3 10 8 6 3 5 4 6 7 9 9
22 14 21 17 10 21 19 11 6 7 1 9 8 12 17 10 9 7 11 10 8 7 7 3 3 1 2 5 2 6 5 2 1 2 7 2 4 8 4 3 8 10 8 9 8
22 16 25 13 20 26 13 10 10 5 8 5 8 12 13 14 7 10 14 11 9 3 9 7 3 8 5 6 6 7 6 5 7 4 3 1 6 6 5 2 7 9 10 9 9
19 12 15 17 23 17 15 11 8 8 8 10 11 14 5 12 6 10 14 14 13 9 5 6 5 2 3 4 8 6 10 3 3 1 3 5 5 8 6 5 7 12 9 8 8
10 14 12 26 23 16 12 10 6 8 13 16 8 6 11 13 6 13 15 12 7 9 2 4 4 1 2 3 2 3 4 1 2 3 5 4 3 6 6 7 6 7 7 7 6
10 8 9 21 16 15 11 5 5 6 17 6 7 8 7 11 8 9 15 6 13 13 5 2 4 2 5 6 11 5 3 4 4 4 4 1 5 5 3 6 8 7 8 8 8
2 4 8 16 10 5 8 11 5 13 3 4 5 6 10 16 6 7 7 2 15 14 13 5 4 5 4 2 3 6 4 5 4 4 3 3 7 6 6 7 9 7 7 8 8
4 3 1 14 7 7 8 5 6 10 6 6 5 4 6 11 5 6 6 4 7 12 14 8 4 3 2 4 4 6 7 5 3 3 5 4 5 4 7 5 4 5 3 4 6
4 5 4 4 1 10 17 9 8 6 5 5 6 6 9 13 3 8 5 1 2 7 9 7 3 4 7 4 6 7 11 11 9 4 7 10 7 13 12 2 4 5 4 9 10
3 3 1 5 6 13 7 8 17 6 4 4 3 5 9 6 4 6 5 4 4 6 5 9 3 8 2 3 2 3 6 8 9 7 9 2 9 7 8 11 11 7 7 8 10
3 3 2 4 11 15 8 11 21 6 9 6 9 6 4 8 7 9 8 4 5 2 6 1 3 3 3 5 4 4 6 4 4 5 6 9 15 10 11 5 8 11 11 12 9
1 3 4 3 5 7 4 11 12 11 2 7 11 7 6 5 6 4 5 6 9 8 6 7 5 4 5 3 3 7 9 10 9 6 6 11 16 10 12 12 8 9 9 10 12
Wind_Direction
205 206 200 197 193 192 195 190 183 192 203 194 83 358 343 337 314 298 258 330 337 329 328 300 346 341 352 297 341 26 65 244 255 168 194 177 130 49 111 123 81 92 120 155 163
202 202 198 192 189 190 188 187 188 195 205 202 238 343 345 343 294 242 48 16 356 344 358 5 348 343 347 297 338 90 123 220 308 298 169 137 110 139 95 114 74 85 107 155 160
203 198 199 191 187 187 186 184 181 190 197 212 223 322 337 347 308 185 301 344 340 300 231 286 302 320 316 319 294 254 189 290 347 29 39 130 99 153 120 220 195 181 175 157 163
206 194 199 192 186 188 184 184 180 179 188 202 225 282 335 65 216 137 289 318 315 271 223 221 257 285 214 242 260 252 337 64 358 14 39 38 114 122 125 166 145 137 153 139 81
207 199 194 193 191 186 185 185 181 174 176 191 205 262 274 118 250 216 296 314 300 216 209 201 182 191 226 252 113 96 307 68 86 44 68 31 48 114 272 267 4 133 118 126 109
209 197 193 189 192 189 183 183 183 172 171 179 191 188 301 188 183 59 333 329 350 291 241 213 207 219 254 253 136 30 255 147 92 51 51 46 310 34 280 282 297 288 166 177 203
207 201 189 189 191 187 186 184 180 172 164 164 186 224 61 220 91 55 317 5 308 347 267 257 4 75 326 73 84 42 31 346 189 135 352 103 297 237 244 266 259 239 203 274 256
205 199 187 186 189 189 188 184 178 171 167 161 177 263 232 30 330 101 252 274 290 314 7 32 10 14 48 136 35 83 38 186 271 167 192 96 264 280 270 209 233 247 247 279 267
222 196 193 190 185 183 180 173 172 176 165 151 125 175 257 159 138 226 292 252 224 15 7 7 20 160 36 107 51 318 189 213 291 169 146 141 254 271 66 165 230 244 256 260 297
219 208 191 190 183 171 158 146 150 131 159 147 349 230 228 189 136 134 340 278 120 130 66 49 43 99 99 122 190 190 215 232 199 239 164 205 246 282 293 260 237 235 245 251 270
211 224 198 189 180 163 136 120 118 130 182 167 197 252 108 119 78 154 158 80 15 172 129 217 113 195 220 210 167 102 163 231 129 233 119 246 263 254 275 252 243 241 240 237 239
290 213 207 190 179 155 156 174 177 166 155 217 57 219 107 204 110 147 99 141 170 173 165 136 232 224 217 231 252 218 11 278 56 166 142 279 270 253 242 242 225 230 228 225 113
238 230 215 192 170 157 176 186 158 130 111 180 189 174 199 191 148 177 149 178 179 157 194 157 222 204 207 179 178 187 193 258 67 357 312 330 293 298 258 237 237 227 210 146 138
206 245 211 194 168 169 187 186 134 85 97 186 190 224 157 174 214 146 184 160 191 191 182 221 249 169 195 174 133 199 234 237 16 64 231 93 286 305 276 201 181 166 114 110 111
197 224 207 194 150 182 156 115 110 48 192 199 165 165 150 169 138 196 156 359 184 176 151 211 179 176 165 173 160 241 141 176 152 208 356 262 191 273 238 243 193 123 122 119 116
212 221 216 202 187 157 131 124 79 139 223 159 140 164 154 172 165 106 130 151 142 180 125 178 282 147 154 143 172 143 77 62 70 90 294 214 170 269 240 198 113 118 131 116 109
221 217 219 191 177 139 132 120 157 199 228 171 160 168 173 170 146 169 173 177 160 158 180 135 175 96 111 115 107 126 117 130 248 229 229 336 166 248 251 135 150 154 144 137 128
221 240 204 184 146 137 147 147 203 138 179 202 143 157 177 155 173 175 159 181 233 246 136 159 189 172 179 168 169 178 175 169 199 204 260 298 230 254 217 165 118 144 133 133 134
217 217 179 157 153 147 148 195 170 162 165 138 105 168 168 183 136 170 182 198 194 194 151 146 197 85 140 132 134 186 216 215 101 9 80 224 290 320 282 96 109 126 133 145 149
209 201 166 156 152 149 164 177 180 159 138 140 125 173 174 179 149 181 167 192 194 190 235 160 108 319 150 107 170 164 166 140 353 167 237 281 238 233 327 209 141 143 153 168 166
213 173 137 152 145 161 174 150 177 189 138 130 147 135 163 171 169 191 177 189 182 188 147 161 113 181 127 202 190 153 215 225 149 161 174 224 262 217 102 102 158 170 178 174 177
111 129 190 150 161 142 154 149 181 153 127 115 117 112 160 164 162 175 174 197 191 171 178 215 118 158 168 348 204 226 206 202 140 235 229 155 261 220 141 122 121 150 167 184 190
121 125 302 163 149 143 135 149 128 140 142 150 136 144 155 153 144 163 166 168 130 172 173 168 147 110 61 355 330 237 219 231 271 74 204 168 270 336 96 98 109 148 189 186 194
100 123 44 136 168 134 135 143 112 92 102 93 107 111 118 151 101 174 120 79 131 166 116 100 157 189 205 204 152 188 205 217 210 204 238 232 284 295 303 346 334 337 188 202 211
32 74 67 125 129 138 106 132 142 129 105 123 58 141 142 125 101 129 120 129 48 121 111 140 152 184 198 147 117 176 194 199 212 221 239 217 260 251 278 288 287 274 269 235 232
105 121 101 84 120 129 115 158 157 140 137 177 136 153 114 145 166 157 130 147 163 94 126 129 199 112 328 155 179 223 233 219 213 235 254 241 260 254 260 276 252 262 270 274 256
52 12 64 52 130 129 141 149 163 126 7 155 144 125 106 143 106 76 90 114 145 144 158 146 127 91 247 349 50 320 206 215 227 214 214 248 257 268 262 254 258 264 262 253 261